SVA110 EGLL-OERK

Flight info

Callsign SVA110
Flight time N/A
Altitude 35000
Route DET L6 DVR UL9 KONAN DCT KOK DCT SISGA DCT KOMOB DCT PITES DCT EDISA DCT KUNOD DCT GEDSO DCT VEKEN DCT DARZA DCT GLOMY DCT PETAK DCT DIMIS DCT IPTES UL604 SALUN/N0472F370 N705 MMA P751 DASUM Y234 FYM M872 WEJ L604 GAS G662 SIVIS
Aircraft B77W/H-SDE1E2E3FGHIJ2J3J4J5M1RWXY/LB1D1

Departure

Time 2026-05-06 09:28
Airport London Heathrow Airport (EGLL)

Arrival

Time N/A
Airport King Khalid International Airport (OERK)
Time Latitude Longitude Altitude Speed Heading
2026-05-06 09:05 51.46025 -0.44884 91 ft 0 kts 130°
2026-05-06 09:11 51.46026 -0.44884 91 ft 1 kts 130°
2026-05-06 09:12 51.46035 -0.44901 95 ft 3 kts 130°
2026-05-06 09:12 51.46045 -0.44920 92 ft 3 kts 130°
2026-05-06 09:12 51.46055 -0.44940 94 ft 2 kts 129°
2026-05-06 09:12 51.46066 -0.44963 93 ft 3 kts 111°
2026-05-06 09:13 51.46070 -0.44985 93 ft 3 kts 83°
2026-05-06 09:13 51.46067 -0.45004 92 ft 3 kts 50°
2026-05-06 09:13 51.46054 -0.45024 93 ft 3 kts 36°
2026-05-06 09:13 51.46039 -0.45041 93 ft 2 kts 39°
2026-05-06 09:14 51.46037 -0.45044 92 ft 0 kts 40°
2026-05-06 09:16 51.46064 -0.45007 91 ft 7 kts 41°
2026-05-06 09:16 51.46100 -0.44957 95 ft 7 kts 42°
2026-05-06 09:16 51.46136 -0.44906 95 ft 7 kts 42°
2026-05-06 09:17 51.46171 -0.44855 96 ft 7 kts 42°
2026-05-06 09:17 51.46213 -0.44795 94 ft 8 kts 41°
2026-05-06 09:17 51.46256 -0.44737 96 ft 8 kts 31°
2026-05-06 09:17 51.46311 -0.44769 94 ft 13 kts 300°
2026-05-06 09:18 51.46320 -0.44917 93 ft 14 kts 271°
2026-05-06 09:18 51.46320 -0.45067 93 ft 14 kts 269°
2026-05-06 09:18 51.46318 -0.45250 94 ft 20 kts 269°
2026-05-06 09:18 51.46317 -0.45471 94 ft 20 kts 271°
2026-05-06 09:19 51.46325 -0.45688 93 ft 20 kts 274°
2026-05-06 09:19 51.46324 -0.45912 91 ft 20 kts 270°
2026-05-06 09:19 51.46324 -0.46130 91 ft 20 kts 270°
2026-05-06 09:19 51.46324 -0.46353 91 ft 20 kts 270°
2026-05-06 09:20 51.46323 -0.46571 91 ft 20 kts 269°
2026-05-06 09:20 51.46322 -0.46791 92 ft 20 kts 270°
2026-05-06 09:20 51.46325 -0.47012 92 ft 20 kts 269°
2026-05-06 09:20 51.46322 -0.47231 91 ft 19 kts 269°
2026-05-06 09:21 51.46339 -0.47443 93 ft 19 kts 275°
2026-05-06 09:21 51.46328 -0.47655 95 ft 19 kts 249°
2026-05-06 09:21 51.46264 -0.47843 94 ft 19 kts 248°
2026-05-06 09:21 51.46252 -0.48060 91 ft 18 kts 270°
2026-05-06 09:22 51.46251 -0.48264 83 ft 19 kts 270°
2026-05-06 09:22 51.46251 -0.48463 87 ft 17 kts 270°
2026-05-06 09:22 51.46259 -0.48605 92 ft 9 kts 286°
2026-05-06 09:22 51.46286 -0.48678 89 ft 0 kts 313°
2026-05-06 09:24 51.46301 -0.48701 90 ft 11 kts 321°
2026-05-06 09:24 51.46369 -0.48745 92 ft 11 kts 348°
2026-05-06 09:24 51.46444 -0.48751 94 ft 11 kts
2026-05-06 09:25 51.46477 -0.48680 94 ft 8 kts 85°
2026-05-06 09:25 51.46477 -0.48664 94 ft 0 kts 89°
2026-05-06 09:25 51.46477 -0.48663 94 ft 0 kts 89°
2026-05-06 09:27 51.46478 -0.48548 91 ft 39 kts 89°
2026-05-06 09:27 51.46481 -0.47698 87 ft 111 kts 89°
2026-05-06 09:27 51.46493 -0.46125 90 ft 168 kts 88°
2026-05-06 09:27 51.46436 -0.44181 465 ft 173 kts 91°
2026-05-06 09:28 51.46294 -0.42203 1095 ft 180 kts 91°
2026-05-06 09:28 51.46047 -0.40218 1630 ft 189 kts 118°
2026-05-06 09:28 51.45085 -0.38663 1913 ft 205 kts 133°
2026-05-06 09:28 51.44381 -0.36649 2061 ft 216 kts 100°
2026-05-06 09:29 51.43986 -0.34187 2282 ft 240 kts 103°
2026-05-06 09:29 51.43458 -0.31586 2827 ft 253 kts 105°
2026-05-06 09:29 51.42877 -0.28889 3574 ft 256 kts 105°
2026-05-06 09:29 51.42387 -0.26110 4205 ft 263 kts 98°
2026-05-06 09:30 51.42021 -0.23199 4878 ft 269 kts 97°
2026-05-06 09:30 51.41643 -0.20225 5590 ft 274 kts 98°
2026-05-06 09:30 51.41243 -0.17213 6312 ft 279 kts 98°
2026-05-06 09:30 51.40829 -0.14143 7009 ft 283 kts 99°
2026-05-06 09:31 51.40406 -0.11058 7753 ft 284 kts 99°
2026-05-06 09:31 51.39978 -0.07960 8465 ft 286 kts 99°
2026-05-06 09:31 51.39544 -0.04826 9180 ft 289 kts 100°
2026-05-06 09:31 51.39404 -0.03807 9411 ft 290 kts 100°
2026-05-06 09:32 51.38813 0.00456 10274 ft 296 kts 100°
2026-05-06 09:32 51.38353 0.03762 10599 ft 314 kts 101°
2026-05-06 09:32 51.38031 0.06082 10707 ft 330 kts 101°
2026-05-06 09:32 51.37334 0.11066 10909 ft 362 kts 101°
2026-05-06 09:33 51.36576 0.16454 11670 ft 376 kts 101°
2026-05-06 09:33 51.36186 0.19224 12221 ft 380 kts 102°
2026-05-06 09:33 51.35410 0.24697 13541 ft 381 kts 102°
2026-05-06 09:33 51.35020 0.27445 14145 ft 382 kts 102°
2026-05-06 09:34 51.34431 0.31601 15047 ft 384 kts 102°
2026-05-06 09:34 51.33834 0.35807 15828 ft 391 kts 102°
2026-05-06 09:34 51.33021 0.41506 16946 ft 394 kts 103°
2026-05-06 09:34 51.32617 0.44322 17640 ft 393 kts 103°
2026-05-06 09:35 51.31867 0.49552 18091 ft 411 kts 103°
2026-05-06 09:35 51.31218 0.54055 18073 ft 413 kts 103°
2026-05-06 09:35 51.30574 0.58500 18061 ft 407 kts 103°
2026-05-06 09:35 51.29888 0.62873 18435 ft 405 kts 105°
2026-05-06 09:36 51.29108 0.67215 19136 ft 410 kts 107°
2026-05-06 09:36 51.28285 0.71621 19722 ft 415 kts 107°
2026-05-06 09:36 51.27733 0.74551 20179 ft 417 kts 107°